Zurück zum Katalog

XIHE

AktivWissenschaftSSO
NORAD 49316·PAYLOAD·🇨🇳 China
Dieser Satellitenname wurde noch nicht durch offizielle Quellen bestätigt.

Gestartet Oct 14, 2021 von Taiyuan Satellite Launch Center

Loading…

Nächste Überflüge (nächste 24 Stunden)

TLE

AktuellSource: Space-Track

Epoche: Sep 14, 2026, 14:22 UTC

1 49316U 21091B   26257.59873887  .00001642  00000-0  81726-4 0  9994
2 49316  97.4472  83.8493 0014834  88.4741 271.8193 15.18927743272554

Verfolge XIHE in Echtzeit mit AllMySat

Download on the App Store